GEC74 EDDH-LEPA

Flight info

Callsign GEC74
Flight time 2h 18m
Altitude 23000
Route IDEKO7G/33 IDEKO N850 PIROT/N0481F410 N850 XAROL/N0480F400 DCT BOMBI DCT GIGET DCT ABUKA DCT KRH DCT NATOR/N0481F410 DCT LUTIX DCT BENOT DCT NEMOS DCT GEVEA DCT INCUS DCT BALSI DCT RETNO DCT TUPOX DCT MTG DCT DIVKO DCT VATIR N852 VERSO L129 LUNIK
Aircraft B742/H-SDFHIRWXY/L

Departure

Time 2026-04-25 16:11
Airport Hamburg Helmut Schmidt Airport (EDDH)

Arrival

Time 2026-04-25 18:30
Airport Palma de Mallorca Airport (LEPA)
Time Latitude Longitude Altitude Speed Heading
2026-04-25 15:36 53.62694 9.99213 64 ft 0 kts 63°
2026-04-25 15:55 53.62693 9.99213 63 ft 0 kts 63°
2026-04-25 15:55 53.62694 9.99213 63 ft 0 kts 63°
2026-04-25 15:56 53.62693 9.99213 63 ft 0 kts 63°
2026-04-25 15:56 53.62694 9.99213 63 ft 0 kts 63°
2026-04-25 15:57 53.62690 9.99201 63 ft 2 kts 63°
2026-04-25 15:57 53.62683 9.99178 63 ft 2 kts 63°
2026-04-25 15:57 53.62676 9.99156 63 ft 2 kts 63°
2026-04-25 15:57 53.62669 9.99133 63 ft 2 kts 70°
2026-04-25 15:58 53.62668 9.99108 63 ft 2 kts 99°
2026-04-25 15:58 53.62673 9.99085 63 ft 2 kts 120°
2026-04-25 15:58 53.62682 9.99066 63 ft 2 kts 143°
2026-04-25 15:58 53.62689 9.99060 63 ft 0 kts 153°
2026-04-25 16:01 53.62688 9.99061 63 ft 1 kts 153°
2026-04-25 16:01 53.62680 9.99067 63 ft 0 kts 153°
2026-04-25 16:02 53.62670 9.99076 63 ft 4 kts 154°
2026-04-25 16:02 53.62618 9.99118 63 ft 11 kts 154°
2026-04-25 16:02 53.62577 9.99228 63 ft 11 kts 76°
2026-04-25 16:02 53.62593 9.99351 63 ft 10 kts 80°
2026-04-25 16:03 53.62606 9.99471 63 ft 10 kts 80°
2026-04-25 16:03 53.62620 9.99603 63 ft 12 kts 79°
2026-04-25 16:03 53.62639 9.99760 63 ft 15 kts 71°
2026-04-25 16:03 53.62718 9.99881 63 ft 16 kts 26°
2026-04-25 16:04 53.62810 9.99963 63 ft 10 kts 28°
2026-04-25 16:04 53.62831 10.00054 63 ft 9 kts 115°
2026-04-25 16:04 53.62779 10.00126 63 ft 10 kts 151°
2026-04-25 16:04 53.62708 10.00189 63 ft 11 kts 152°
2026-04-25 16:05 53.62643 10.00246 63 ft 10 kts 153°
2026-04-25 16:05 53.62606 10.00271 63 ft 1 kts 193°
2026-04-25 16:05 53.62593 10.00257 63 ft 0 kts 224°
2026-04-25 16:06 53.62584 10.00239 63 ft 0 kts 229°
2026-04-25 16:08 53.62565 10.00189 63 ft 12 kts 243°
2026-04-25 16:08 53.62541 10.00108 63 ft 0 kts 244°
2026-04-25 16:09 53.62541 10.00107 63 ft 1 kts 244°
2026-04-25 16:09 53.62536 10.00041 63 ft 9 kts 310°
2026-04-25 16:09 53.62577 9.99996 63 ft 7 kts 330°
2026-04-25 16:10 53.62671 9.99911 63 ft 24 kts 332°
2026-04-25 16:10 53.62900 9.99708 63 ft 51 kts 333°
2026-04-25 16:10 53.63318 9.99350 64 ft 84 kts 333°
2026-04-25 16:10 53.63936 9.98819 64 ft 118 kts 332°
2026-04-25 16:11 53.64785 9.98086 64 ft 154 kts 332°
2026-04-25 16:11 53.65786 9.97264 335 ft 157 kts 333°
2026-04-25 16:11 53.66769 9.96514 628 ft 161 kts 330°
2026-04-25 16:11 53.67780 9.95660 829 ft 159 kts 329°
2026-04-25 16:12 53.68734 9.94800 1043 ft 162 kts 327°
2026-04-25 16:12 53.69789 9.93857 1262 ft 179 kts 328°
2026-04-25 16:12 53.70912 9.92798 1468 ft 190 kts 319°
2026-04-25 16:12 53.71231 9.92284 1534 ft 193 kts 304°
2026-04-25 16:13 53.71408 9.88371 1914 ft 233 kts 255°
2026-04-25 16:13 53.70821 9.85745 2127 ft 239 kts 256°
2026-04-25 16:13 53.70260 9.83100 2387 ft 239 kts 257°
2026-04-25 16:13 53.69720 9.80449 2653 ft 241 kts 257°
2026-04-25 16:14 53.69184 9.77771 2917 ft 243 kts 258°
2026-04-25 16:14 53.68646 9.75062 3185 ft 243 kts 258°
2026-04-25 16:14 53.68116 9.72367 3452 ft 243 kts 258°
2026-04-25 16:14 53.67584 9.69663 3717 ft 242 kts 258°
2026-04-25 16:15 53.67057 9.66987 3980 ft 244 kts 258°
2026-04-25 16:15 53.66515 9.64235 4250 ft 244 kts 259°
2026-04-25 16:15 53.65986 9.61552 4511 ft 244 kts 258°
2026-04-25 16:15 53.65137 9.59001 4773 ft 261 kts 232°
2026-04-25 16:16 53.63524 9.57423 5040 ft 283 kts 201°
2026-04-25 16:16 53.61541 9.56958 5315 ft 291 kts 191°
2026-04-25 16:16 53.59543 9.56687 5575 ft 292 kts 192°
2026-04-25 16:16 53.57492 9.56350 5839 ft 292 kts 193°
2026-04-25 16:17 53.55471 9.55972 6103 ft 293 kts 194°
2026-04-25 16:17 53.53464 9.55579 6377 ft 295 kts 195°
2026-04-25 16:17 53.51413 9.55174 6664 ft 297 kts 195°
2026-04-25 16:17 53.49353 9.54767 6947 ft 297 kts 195°
2026-04-25 16:18 53.47239 9.54342 7249 ft 314 kts 194°
2026-04-25 16:18 53.46524 9.54197 7345 ft 320 kts 194°
2026-04-25 16:18 53.42742 9.53446 7817 ft 333 kts 194°
2026-04-25 16:18 53.40411 9.52994 8120 ft 336 kts 194°
2026-04-25 16:19 53.38080 9.52541 8416 ft 337 kts 194°
2026-04-25 16:19 53.35754 9.52085 8700 ft 340 kts 194°
2026-04-25 16:19 53.33428 9.51630 8979 ft 339 kts 194°
2026-04-25 16:20 53.28711 9.50704 9542 ft 342 kts 194°
2026-04-25 16:20 53.26325 9.50237 9833 ft 344 kts 194°
2026-04-25 16:20 53.21579 9.49308 10396 ft 347 kts 194°
2026-04-25 16:21 53.19159 9.48836 10679 ft 348 kts 194°
2026-04-25 16:21 53.16761 9.48369 10957 ft 349 kts 194°
2026-04-25 16:21 53.14364 9.47901 11243 ft 352 kts 194°
2026-04-25 16:21 53.11940 9.47429 11527 ft 352 kts 194°
2026-04-25 16:22 53.09510 9.46958 11813 ft 354 kts 194°
2026-04-25 16:22 53.07046 9.46480 12096 ft 355 kts 194°
2026-04-25 16:22 53.04614 9.46010 12375 ft 357 kts 194°
2026-04-25 16:22 53.02128 9.45528 12666 ft 359 kts 194°
2026-04-25 16:23 52.99624 9.45043 12947 ft 360 kts 194°
2026-04-25 16:23 52.97172 9.44537 13221 ft 361 kts 195°
2026-04-25 16:23 52.94669 9.43997 13490 ft 360 kts 195°
2026-04-25 16:23 52.92206 9.43461 13757 ft 362 kts 195°
2026-04-25 16:24 52.89692 9.42919 14038 ft 363 kts 194°
2026-04-25 16:24 52.87197 9.42383 14328 ft 366 kts 194°
2026-04-25 16:24 52.84684 9.41844 14621 ft 367 kts 194°
2026-04-25 16:24 52.82148 9.41303 14886 ft 369 kts 194°
2026-04-25 16:25 52.79608 9.40762 15171 ft 371 kts 194°
2026-04-25 16:25 52.78733 9.40575 15268 ft 373 kts 194°
2026-04-25 16:25 52.74448 9.39664 15715 ft 374 kts 194°
2026-04-25 16:25 52.71868 9.39116 15975 ft 376 kts 194°
2026-04-25 16:26 52.69286 9.38568 16268 ft 378 kts 194°
2026-04-25 16:26 52.66674 9.38016 16548 ft 378 kts 194°
2026-04-25 16:26 52.64075 9.37466 16789 ft 380 kts 194°
2026-04-25 16:26 52.61446 9.36966 17042 ft 383 kts 192°
2026-04-25 16:27 52.58812 9.36349 17287 ft 381 kts 197°
2026-04-25 16:27 52.56202 9.35581 17535 ft 383 kts 197°
2026-04-25 16:27 52.53589 9.34826 17822 ft 384 kts 195°
2026-04-25 16:27 52.50926 9.34131 18108 ft 387 kts 194°
2026-04-25 16:28 52.48261 9.33465 18397 ft 389 kts 194°
2026-04-25 16:28 52.45578 9.32783 18687 ft 390 kts 194°
2026-04-25 16:28 52.42915 9.32096 18976 ft 391 kts 194°
2026-04-25 16:28 52.40216 9.31395 19274 ft 394 kts 194°
2026-04-25 16:29 52.37515 9.30692 19556 ft 395 kts 194°
2026-04-25 16:29 52.34782 9.29981 19848 ft 397 kts 194°
2026-04-25 16:29 52.32066 9.29270 20138 ft 398 kts 194°
2026-04-25 16:29 52.29322 9.28552 20427 ft 401 kts 194°
2026-04-25 16:30 52.26575 9.27834 20716 ft 402 kts 194°
2026-04-25 16:30 52.23801 9.27109 21039 ft 404 kts 194°
2026-04-25 16:30 52.21035 9.26494 21326 ft 409 kts 191°
2026-04-25 16:30 52.18196 9.25987 21633 ft 410 kts 190°
2026-04-25 16:31 52.15370 9.25505 21923 ft 412 kts 190°
2026-04-25 16:31 52.12534 9.25012 22215 ft 413 kts 191°
2026-04-25 16:31 52.09639 9.24497 22504 ft 414 kts 191°
2026-04-25 16:31 52.06770 9.23980 22791 ft 416 kts 191°
2026-04-25 16:32 52.03910 9.23412 23082 ft 417 kts 193°
2026-04-25 16:32 52.01053 9.22683 23139 ft 421 kts 194°
2026-04-25 16:32 51.98172 9.21899 23115 ft 418 kts 194°
2026-04-25 16:32 51.95315 9.21126 23112 ft 414 kts 194°
2026-04-25 16:33 51.92460 9.20364 23110 ft 413 kts 194°
2026-04-25 16:33 51.89603 9.19609 23111 ft 414 kts 194°
2026-04-25 16:33 51.86785 9.18910 23110 ft 416 kts 192°
2026-04-25 16:33 51.83878 9.18271 23111 ft 417 kts 192°
2026-04-25 16:34 51.81005 9.17662 23114 ft 416 kts 192°
2026-04-25 16:34 51.78166 9.17059 23113 ft 416 kts 192°
2026-04-25 16:34 51.75294 9.16442 23110 ft 415 kts 192°
2026-04-25 16:34 51.72423 9.15823 23111 ft 414 kts 192°
2026-04-25 16:35 51.69580 9.15208 23113 ft 415 kts 192°
2026-04-25 16:35 51.66704 9.14585 23112 ft 416 kts 192°
2026-04-25 16:35 51.63842 9.13966 23111 ft 416 kts 192°
2026-04-25 16:35 51.60979 9.13348 23114 ft 416 kts 192°
2026-04-25 16:36 51.58105 9.12729 23115 ft 416 kts 191°
2026-04-25 16:36 51.57167 9.12527 23113 ft 416 kts 191°
2026-04-25 16:36 51.52390 9.11499 23119 ft 415 kts 191°
2026-04-25 16:36 51.49531 9.10840 23122 ft 414 kts 194°
2026-04-25 16:37 51.46702 9.09926 23120 ft 413 kts 197°
2026-04-25 16:37 51.43908 9.08924 23117 ft 413 kts 197°
2026-04-25 16:37 51.41127 9.07929 23121 ft 411 kts 197°
2026-04-25 16:37 51.38315 9.06945 23120 ft 411 kts 196°
2026-04-25 16:38 51.35541 9.05990 23116 ft 412 kts 196°
2026-04-25 16:38 51.32722 9.05029 23113 ft 412 kts 196°
2026-04-25 16:38 51.29928 9.04173 23111 ft 413 kts 192°
2026-04-25 16:38 51.27058 9.03576 23111 ft 414 kts 190°
2026-04-25 16:39 51.24198 9.03060 23110 ft 414 kts 190°
2026-04-25 16:39 51.21333 9.02535 23110 ft 415 kts 190°
2026-04-25 16:39 51.18473 9.01988 23109 ft 414 kts 190°
2026-04-25 16:39 51.15655 9.01436 23105 ft 414 kts 191°
2026-04-25 16:40 51.12782 9.00866 23115 ft 414 kts 191°
2026-04-25 16:40 51.09905 9.00292 23116 ft 415 kts 191°
2026-04-25 16:40 51.07040 8.99722 23111 ft 414 kts 191°
2026-04-25 16:40 51.04179 8.99154 23111 ft 413 kts 191°
2026-04-25 16:41 51.01341 8.98591 23109 ft 413 kts 191°
2026-04-25 16:41 51.00389 8.98402 23110 ft 413 kts 191°
2026-04-25 16:41 50.92809 8.96902 23109 ft 412 kts 191°
2026-04-25 16:42 50.89961 8.96340 23110 ft 413 kts 191°
2026-04-25 16:42 50.87102 8.95776 23111 ft 412 kts 191°
2026-04-25 16:42 50.84246 8.95213 23109 ft 413 kts 190°
2026-04-25 16:42 50.81401 8.94652 23110 ft 414 kts 190°
2026-04-25 16:43 50.78516 8.94086 23108 ft 413 kts 190°
2026-04-25 16:43 50.75676 8.93529 23107 ft 413 kts 190°
2026-04-25 16:43 50.72839 8.92974 23104 ft 412 kts 190°
2026-04-25 16:43 50.69985 8.92416 23105 ft 412 kts 190°
2026-04-25 16:44 50.67163 8.91864 23106 ft 412 kts 190°
2026-04-25 16:44 50.64299 8.91305 23105 ft 412 kts 190°
2026-04-25 16:44 50.61459 8.90751 23105 ft 412 kts 190°
2026-04-25 16:44 50.58633 8.90201 23109 ft 412 kts 190°
2026-04-25 16:45 50.55779 8.89646 23107 ft 412 kts 190°
2026-04-25 16:45 50.52914 8.89089 23106 ft 412 kts 190°
2026-04-25 16:45 50.50093 8.88542 23102 ft 412 kts 190°
2026-04-25 16:45 50.47257 8.87992 23106 ft 411 kts 190°
2026-04-25 16:46 50.44425 8.87445 23103 ft 411 kts 190°
2026-04-25 16:46 50.41594 8.86898 23105 ft 411 kts 190°
2026-04-25 16:46 50.38738 8.86347 23109 ft 411 kts 190°
2026-04-25 16:46 50.37781 8.86162 23108 ft 411 kts 190°
2026-04-25 16:47 50.33054 8.85251 23099 ft 411 kts 190°
2026-04-25 16:47 50.30215 8.84705 23101 ft 411 kts 190°
2026-04-25 16:47 50.27401 8.84164 23103 ft 412 kts 190°
2026-04-25 16:47 50.24530 8.83612 23103 ft 412 kts 190°
2026-04-25 16:48 50.21717 8.83073 23100 ft 412 kts 190°
2026-04-25 16:48 50.18860 8.82526 23098 ft 411 kts 190°
2026-04-25 16:48 50.16043 8.81988 23099 ft 411 kts 190°
2026-04-25 16:48 50.13193 8.81444 23102 ft 410 kts 189°
2026-04-25 16:49 50.10348 8.80901 23103 ft 410 kts 190°
2026-04-25 16:49 50.07517 8.80362 23101 ft 411 kts 189°
2026-04-25 16:49 50.04711 8.79821 23106 ft 410 kts 190°
2026-04-25 16:49 50.01871 8.79236 23109 ft 410 kts 191°
2026-04-25 16:50 49.99042 8.78641 23109 ft 411 kts 191°
2026-04-25 16:50 49.96210 8.78045 23107 ft 411 kts 191°
2026-04-25 16:50 49.93396 8.77457 23104 ft 411 kts 191°
2026-04-25 16:50 49.90570 8.76869 23102 ft 411 kts 191°
2026-04-25 16:51 49.87710 8.76275 23101 ft 412 kts 191°
2026-04-25 16:51 49.84871 8.75686 23103 ft 411 kts 191°
2026-04-25 16:51 49.82048 8.75101 23100 ft 411 kts 191°
2026-04-25 16:51 49.81118 8.74909 23099 ft 410 kts 190°
2026-04-25 16:52 49.76388 8.73933 23101 ft 410 kts 190°
2026-04-25 16:52 49.73556 8.73348 23103 ft 411 kts 190°
2026-04-25 16:52 49.70734 8.72768 23097 ft 411 kts 190°
2026-04-25 16:52 49.67907 8.72190 23106 ft 411 kts 190°
2026-04-25 16:53 49.62221 8.71042 23104 ft 412 kts 190°
2026-04-25 16:53 49.59385 8.70471 23112 ft 413 kts 190°
2026-04-25 16:53 49.56549 8.69899 23119 ft 414 kts 190°
2026-04-25 16:54 49.53706 8.69327 23115 ft 413 kts 190°
2026-04-25 16:54 49.50867 8.68757 23113 ft 412 kts 191°
2026-04-25 16:54 49.48003 8.68182 23119 ft 412 kts 190°
2026-04-25 16:54 49.45182 8.67615 23115 ft 412 kts 191°
2026-04-25 16:55 49.42339 8.67038 23119 ft 412 kts 191°
2026-04-25 16:55 49.39500 8.66461 23119 ft 413 kts 191°
2026-04-25 16:55 49.36628 8.65878 23119 ft 413 kts 191°
2026-04-25 16:55 49.33820 8.65310 23106 ft 413 kts 191°
2026-04-25 16:56 49.30959 8.64732 23106 ft 413 kts 190°
2026-04-25 16:56 49.28086 8.64152 23109 ft 413 kts 190°
2026-04-25 16:56 49.25250 8.63581 23100 ft 414 kts 190°
2026-04-25 16:56 49.22404 8.63008 23101 ft 414 kts 190°
2026-04-25 16:57 49.19537 8.62432 23103 ft 414 kts 190°
2026-04-25 16:57 49.18606 8.62245 23098 ft 414 kts 190°
2026-04-25 16:57 49.13844 8.61290 23094 ft 414 kts 190°
2026-04-25 16:57 49.10978 8.60716 23097 ft 415 kts 190°
2026-04-25 16:58 49.08125 8.60146 23095 ft 415 kts 191°
2026-04-25 16:58 49.05259 8.59573 23093 ft 415 kts 191°
2026-04-25 16:58 49.02413 8.59005 23091 ft 415 kts 191°
2026-04-25 16:58 48.99545 8.58433 23089 ft 415 kts 191°
2026-04-25 16:59 48.96711 8.57679 23092 ft 414 kts 195°
2026-04-25 16:59 48.93903 8.56745 23100 ft 414 kts 196°
2026-04-25 16:59 48.91084 8.55777 23095 ft 413 kts 196°
2026-04-25 16:59 48.88298 8.54839 23098 ft 414 kts 195°
2026-04-25 17:00 48.85461 8.53902 23104 ft 415 kts 195°
2026-04-25 17:00 48.82642 8.52984 23111 ft 416 kts 195°
2026-04-25 17:00 48.79809 8.52068 23110 ft 416 kts 195°
2026-04-25 17:00 48.77004 8.51164 23116 ft 416 kts 195°
2026-04-25 17:01 48.74159 8.50248 23116 ft 416 kts 195°
2026-04-25 17:01 48.71324 8.49336 23117 ft 416 kts 195°
2026-04-25 17:01 48.68503 8.48430 23123 ft 417 kts 195°
2026-04-25 17:01 48.65683 8.47525 23119 ft 416 kts 195°
2026-04-25 17:02 48.62827 8.46610 23116 ft 416 kts 195°
2026-04-25 17:02 48.59983 8.45699 23116 ft 417 kts 195°
2026-04-25 17:02 48.57144 8.44791 23122 ft 418 kts 195°
2026-04-25 17:02 48.56214 8.44493 23117 ft 418 kts 195°
2026-04-25 17:03 48.51495 8.42987 23121 ft 418 kts 195°
2026-04-25 17:03 48.48608 8.42066 23120 ft 418 kts 195°
2026-04-25 17:03 48.45758 8.41159 23119 ft 418 kts 195°
2026-04-25 17:03 48.42916 8.40255 23120 ft 419 kts 195°
2026-04-25 17:04 48.40093 8.39358 23125 ft 419 kts 195°
2026-04-25 17:04 48.37221 8.38447 23123 ft 419 kts 195°
2026-04-25 17:04 48.34349 8.37537 23125 ft 420 kts 195°
2026-04-25 17:04 48.31521 8.36641 23125 ft 420 kts 195°
2026-04-25 17:05 48.28662 8.35737 23124 ft 420 kts 195°
2026-04-25 17:05 48.22935 8.33960 23123 ft 422 kts 194°
2026-04-25 17:05 48.20022 8.33083 23129 ft 423 kts 194°
2026-04-25 17:06 48.17201 8.31978 23129 ft 418 kts 205°
2026-04-25 17:06 48.14624 8.30061 23137 ft 413 kts 215°
2026-04-25 17:06 48.12218 8.27778 23144 ft 411 kts 218°
2026-04-25 17:06 48.09834 8.25389 23144 ft 411 kts 218°
2026-04-25 17:07 48.07469 8.23030 23148 ft 412 kts 218°
2026-04-25 17:07 48.05074 8.20676 23149 ft 412 kts 217°
2026-04-25 17:07 48.02663 8.18337 23154 ft 413 kts 217°
2026-04-25 17:07 48.00221 8.15982 23154 ft 413 kts 217°
2026-04-25 17:08 47.97819 8.13673 23151 ft 413 kts 217°
2026-04-25 17:08 47.95402 8.11353 23150 ft 414 kts 217°
2026-04-25 17:08 47.92991 8.09041 23154 ft 415 kts 217°
2026-04-25 17:08 47.90548 8.06701 23155 ft 415 kts 217°
2026-04-25 17:09 47.88140 8.04396 23153 ft 415 kts 217°
2026-04-25 17:09 47.85722 8.02084 23151 ft 415 kts 217°
2026-04-25 17:09 47.83297 7.99767 23155 ft 415 kts 217°
2026-04-25 17:09 47.80875 7.97457 23156 ft 414 kts 217°
2026-04-25 17:10 47.78440 7.95137 23156 ft 415 kts 217°
2026-04-25 17:10 47.75988 7.92803 23156 ft 415 kts 217°
2026-04-25 17:10 47.73555 7.90491 23154 ft 416 kts 217°
2026-04-25 17:10 47.71136 7.88194 23151 ft 415 kts 217°
2026-04-25 17:11 47.68681 7.85866 23151 ft 415 kts 217°
2026-04-25 17:11 47.66246 7.83559 23146 ft 415 kts 217°
2026-04-25 17:11 47.63837 7.81280 23144 ft 416 kts 217°
2026-04-25 17:11 47.61395 7.78971 23142 ft 416 kts 217°
2026-04-25 17:12 47.58939 7.76654 23138 ft 416 kts 217°
2026-04-25 17:12 47.56507 7.74361 23136 ft 415 kts 217°
2026-04-25 17:12 47.54048 7.72045 23132 ft 414 kts 217°
2026-04-25 17:12 47.51642 7.69781 23127 ft 415 kts 217°
2026-04-25 17:13 47.49182 7.67469 23129 ft 416 kts 217°
2026-04-25 17:13 47.48377 7.66713 23129 ft 416 kts 217°
2026-04-25 17:13 47.44311 7.62899 23125 ft 415 kts 217°
2026-04-25 17:13 47.41893 7.60635 23127 ft 414 kts 217°
2026-04-25 17:14 47.39455 7.58352 23134 ft 415 kts 217°
2026-04-25 17:14 47.37030 7.56085 23132 ft 415 kts 217°
2026-04-25 17:14 47.34565 7.53784 23136 ft 414 kts 217°
2026-04-25 17:14 47.32159 7.51541 23144 ft 414 kts 217°
2026-04-25 17:15 47.30505 7.50000 23142 ft 414 kts 217°
2026-04-25 17:15 47.27275 7.46994 23151 ft 415 kts 217°
2026-04-25 17:15 47.24830 7.44721 23153 ft 415 kts 217°
2026-04-25 17:15 47.22392 7.42458 23157 ft 416 kts 217°
2026-04-25 17:16 47.19950 7.40192 23154 ft 417 kts 217°
2026-04-25 17:16 47.17501 7.37882 23140 ft 413 kts 221°
2026-04-25 17:16 47.15393 7.35080 23145 ft 406 kts 233°
2026-04-25 17:16 47.13591 7.31938 23142 ft 406 kts 236°
2026-04-25 17:17 47.11834 7.28657 23135 ft 405 kts 237°
2026-04-25 17:17 47.10102 7.25397 23130 ft 403 kts 236°
2026-04-25 17:17 47.08375 7.22169 23125 ft 404 kts 236°
2026-04-25 17:17 47.06628 7.18927 23128 ft 404 kts 236°
2026-04-25 17:18 47.04895 7.15732 23121 ft 404 kts 236°
2026-04-25 17:18 47.03143 7.12515 23115 ft 404 kts 236°
2026-04-25 17:18 47.01382 7.09283 23103 ft 404 kts 236°
2026-04-25 17:18 46.99620 7.06056 23117 ft 404 kts 236°
2026-04-25 17:19 46.97883 7.02877 23119 ft 404 kts 236°
2026-04-25 17:19 46.96112 6.99642 23118 ft 404 kts 236°
2026-04-25 17:19 46.94347 6.96419 23123 ft 404 kts 236°
2026-04-25 17:19 46.92589 6.93213 23126 ft 404 kts 236°
2026-04-25 17:20 46.90749 6.90135 23131 ft 406 kts 227°
2026-04-25 17:20 46.88631 6.87411 23136 ft 409 kts 223°
2026-04-25 17:20 46.86398 6.84780 23138 ft 409 kts 222°
2026-04-25 17:20 46.84176 6.82197 23141 ft 409 kts 223°
2026-04-25 17:21 46.81951 6.79590 23149 ft 409 kts 223°
2026-04-25 17:21 46.79749 6.76988 23142 ft 410 kts 223°
2026-04-25 17:21 46.77542 6.74371 23138 ft 409 kts 223°
2026-04-25 17:21 46.75314 6.71723 23135 ft 410 kts 223°
2026-04-25 17:22 46.73117 6.69114 23136 ft 409 kts 223°
2026-04-25 17:22 46.72396 6.68257 23131 ft 408 kts 223°
2026-04-25 17:22 46.68706 6.63884 23132 ft 407 kts 223°
2026-04-25 17:22 46.66508 6.61283 23134 ft 408 kts 223°
2026-04-25 17:23 46.64310 6.58684 23132 ft 408 kts 223°
2026-04-25 17:23 46.62132 6.56111 23128 ft 407 kts 223°
2026-04-25 17:23 46.59914 6.53496 23135 ft 408 kts 223°
2026-04-25 17:23 46.57691 6.50876 23130 ft 409 kts 223°
2026-04-25 17:24 46.55495 6.48291 23121 ft 408 kts 223°
2026-04-25 17:24 46.53292 6.45700 23125 ft 407 kts 223°
2026-04-25 17:24 46.51104 6.43130 23130 ft 408 kts 223°
2026-04-25 17:24 46.48880 6.40521 23129 ft 408 kts 223°
2026-04-25 17:25 46.46686 6.37950 23134 ft 407 kts 223°
2026-04-25 17:25 46.44468 6.35353 23134 ft 406 kts 222°
2026-04-25 17:25 46.42258 6.32788 23135 ft 406 kts 221°
2026-04-25 17:25 46.40057 6.30267 23138 ft 406 kts 221°
2026-04-25 17:26 46.37848 6.27724 23135 ft 406 kts 221°
2026-04-25 17:26 46.35660 6.25190 23124 ft 407 kts 221°
2026-04-25 17:26 46.33440 6.22611 23126 ft 408 kts 221°
2026-04-25 17:26 46.31183 6.19982 23129 ft 425 kts 221°
2026-04-25 17:27 46.28814 6.17226 23111 ft 442 kts 221°
2026-04-25 17:27 46.26295 6.14624 23119 ft 459 kts 211°
2026-04-25 17:27 46.23318 6.12747 23116 ft 477 kts 198°
2026-04-25 17:27 46.22237 6.12313 23118 ft 482 kts 195°
2026-04-25 17:28 46.16620 6.10911 23112 ft 504 kts 188°
2026-04-25 17:28 46.13096 6.10249 23109 ft 514 kts 188°
2026-04-25 17:28 46.09502 6.09567 23113 ft 524 kts 188°
2026-04-25 17:28 46.05857 6.08836 23106 ft 531 kts 189°
2026-04-25 17:29 46.02204 6.08069 23108 ft 535 kts 189°
2026-04-25 17:29 45.98517 6.07271 23104 ft 535 kts 189°
2026-04-25 17:29 45.94811 6.06456 23110 ft 535 kts 189°
2026-04-25 17:29 45.91153 6.05647 23109 ft 535 kts 189°
2026-04-25 17:30 45.87471 6.04832 23113 ft 534 kts 189°
2026-04-25 17:30 45.83804 6.04021 23109 ft 533 kts 189°
2026-04-25 17:30 45.80143 6.03209 23105 ft 533 kts 189°
2026-04-25 17:30 45.76460 6.02393 23115 ft 533 kts 189°
2026-04-25 17:31 45.72799 6.01584 23103 ft 533 kts 189°
2026-04-25 17:31 45.69127 6.00773 23110 ft 532 kts 189°
2026-04-25 17:31 45.65474 5.99968 23094 ft 532 kts 189°
2026-04-25 17:31 45.61813 5.99162 23093 ft 533 kts 189°
2026-04-25 17:32 45.58152 5.98358 23092 ft 533 kts 189°
2026-04-25 17:32 45.54493 5.97555 23091 ft 532 kts 189°
2026-04-25 17:32 45.50821 5.96750 23086 ft 532 kts 189°
2026-04-25 17:32 45.47181 5.95941 23097 ft 532 kts 190°
2026-04-25 17:33 45.43540 5.94932 23101 ft 531 kts 193°
2026-04-25 17:33 45.39946 5.93793 23127 ft 531 kts 194°
2026-04-25 17:33 45.36342 5.92612 23141 ft 530 kts 194°
2026-04-25 17:33 45.32755 5.91442 23162 ft 530 kts 194°
2026-04-25 17:34 45.29182 5.90295 23168 ft 531 kts 193°
2026-04-25 17:34 45.25540 5.89143 23167 ft 531 kts 193°
2026-04-25 17:34 45.21921 5.88010 23175 ft 531 kts 193°
2026-04-25 17:34 45.18355 5.86901 23176 ft 532 kts 193°
2026-04-25 17:35 45.14731 5.85777 23177 ft 531 kts 193°
2026-04-25 17:35 45.11103 5.84654 23178 ft 529 kts 193°
2026-04-25 17:35 45.07510 5.83543 23178 ft 528 kts 193°
2026-04-25 17:35 45.03942 5.82440 23173 ft 528 kts 193°
2026-04-25 17:36 45.00359 5.81334 23175 ft 529 kts 193°
2026-04-25 17:36 44.96755 5.80222 23175 ft 530 kts 193°
2026-04-25 17:36 44.93116 5.79101 23167 ft 530 kts 193°
2026-04-25 17:36 44.89546 5.78003 23165 ft 530 kts 193°
2026-04-25 17:37 44.85903 5.76884 23157 ft 531 kts 193°
2026-04-25 17:37 44.82291 5.75776 23147 ft 531 kts 193°
2026-04-25 17:37 44.78694 5.74674 23138 ft 530 kts 193°
2026-04-25 17:37 44.75073 5.73567 23131 ft 530 kts 193°
2026-04-25 17:38 44.71503 5.72475 23135 ft 531 kts 193°
2026-04-25 17:38 44.70270 5.72099 23134 ft 530 kts 193°
2026-04-25 17:38 44.64291 5.70276 23125 ft 530 kts 193°
2026-04-25 17:38 44.60672 5.69174 23121 ft 529 kts 193°
2026-04-25 17:39 44.57057 5.68075 23116 ft 530 kts 193°
2026-04-25 17:39 44.53452 5.66980 23120 ft 530 kts 193°
2026-04-25 17:39 44.49846 5.65887 23118 ft 531 kts 193°
2026-04-25 17:39 44.46271 5.64804 23118 ft 530 kts 193°
2026-04-25 17:40 44.42626 5.63701 23117 ft 530 kts 193°
2026-04-25 17:40 44.39050 5.62609 23106 ft 530 kts 195°
2026-04-25 17:40 44.35502 5.61108 23108 ft 529 kts 200°
2026-04-25 17:40 44.32067 5.59302 23103 ft 528 kts 203°
2026-04-25 17:41 44.28659 5.57378 23098 ft 529 kts 204°
2026-04-25 17:41 44.25250 5.55429 23091 ft 528 kts 204°
2026-04-25 17:41 44.21855 5.53509 23095 ft 528 kts 203°
2026-04-25 17:41 44.18422 5.51594 23089 ft 529 kts 203°
2026-04-25 17:42 44.15031 5.49725 23080 ft 529 kts 203°
2026-04-25 17:42 44.11577 5.47836 23081 ft 528 kts 203°
2026-04-25 17:42 44.08149 5.45969 23081 ft 529 kts 203°
2026-04-25 17:42 44.04733 5.44112 23078 ft 528 kts 203°
2026-04-25 17:43 44.01337 5.42268 23076 ft 527 kts 203°
2026-04-25 17:43 43.97878 5.40392 23074 ft 527 kts 203°
2026-04-25 17:43 43.94479 5.38550 23068 ft 527 kts 203°
2026-04-25 17:43 43.91045 5.36689 23064 ft 527 kts 203°
2026-04-25 17:44 43.87631 5.34841 23056 ft 527 kts 202°
2026-04-25 17:44 43.84177 5.32999 23047 ft 528 kts 201°
2026-04-25 17:44 43.80775 5.31208 23048 ft 528 kts 201°
2026-04-25 17:44 43.77322 5.29383 23041 ft 528 kts 201°
2026-04-25 17:45 43.73920 5.27574 23031 ft 528 kts 202°
2026-04-25 17:45 43.72748 5.26948 23027 ft 528 kts 202°
2026-04-25 17:45 43.67064 5.23903 23035 ft 528 kts 202°
2026-04-25 17:45 43.63626 5.22058 23041 ft 528 kts 202°
2026-04-25 17:46 43.60210 5.20227 23045 ft 527 kts 202°
2026-04-25 17:46 43.56779 5.18390 23049 ft 527 kts 202°
2026-04-25 17:46 43.53361 5.16561 23047 ft 527 kts 202°
2026-04-25 17:46 43.49933 5.14730 23051 ft 527 kts 202°
2026-04-25 17:47 43.46510 5.12904 23051 ft 527 kts 202°
2026-04-25 17:47 43.43100 5.11088 23048 ft 527 kts 202°
2026-04-25 17:47 43.39719 5.09250 23050 ft 525 kts 205°
2026-04-25 17:47 43.36460 5.06829 23060 ft 525 kts 212°
2026-04-25 17:48 43.30415 5.01211 23055 ft 525 kts 216°
2026-04-25 17:48 43.27436 4.98307 23054 ft 525 kts 216°
2026-04-25 17:48 43.24455 4.95422 23053 ft 525 kts 216°
2026-04-25 17:49 43.21489 4.92583 23055 ft 525 kts 216°
2026-04-25 17:49 43.18468 4.89720 23056 ft 525 kts 216°
2026-04-25 17:49 43.15461 4.86890 23060 ft 525 kts 216°
2026-04-25 17:49 43.12445 4.84063 23055 ft 525 kts 216°
2026-04-25 17:50 43.09419 4.81231 23061 ft 525 kts 216°
2026-04-25 17:50 43.06433 4.78444 23061 ft 525 kts 215°
2026-04-25 17:50 43.03307 4.75781 23065 ft 526 kts 211°
2026-04-25 17:50 43.00132 4.73324 23067 ft 526 kts 210°
2026-04-25 17:51 42.96919 4.70928 23064 ft 527 kts 210°
2026-04-25 17:51 42.93668 4.68519 23064 ft 527 kts 210°
2026-04-25 17:51 42.90478 4.66145 23067 ft 527 kts 210°
2026-04-25 17:51 42.87269 4.63741 23064 ft 527 kts 210°
2026-04-25 17:52 42.84034 4.61306 23068 ft 527 kts 210°
2026-04-25 17:52 42.83001 4.60528 23069 ft 528 kts 210°
2026-04-25 17:52 42.77606 4.56459 23068 ft 527 kts 210°
2026-04-25 17:52 42.74416 4.54055 23070 ft 527 kts 210°
2026-04-25 17:53 42.71186 4.51624 23072 ft 528 kts 210°
2026-04-25 17:53 42.67987 4.49219 23071 ft 528 kts 210°
2026-04-25 17:53 42.64798 4.46825 23070 ft 528 kts 210°
2026-04-25 17:53 42.61537 4.44380 23074 ft 529 kts 210°
2026-04-25 17:54 42.58319 4.41971 23074 ft 529 kts 210°
2026-04-25 17:54 42.55126 4.39583 23074 ft 529 kts 210°
2026-04-25 17:54 42.51889 4.37165 23076 ft 529 kts 210°
2026-04-25 17:54 42.48642 4.34742 23075 ft 529 kts 209°
2026-04-25 17:55 42.45453 4.32393 23076 ft 528 kts 209°
2026-04-25 17:55 42.42265 4.30067 23075 ft 508 kts 209°
2026-04-25 17:55 42.39218 4.27839 23074 ft 487 kts 209°
2026-04-25 17:55 42.36311 4.25702 23074 ft 468 kts 209°
2026-04-25 17:56 42.33499 4.23627 23072 ft 450 kts 209°
2026-04-25 17:56 42.30804 4.21634 23073 ft 433 kts 209°
2026-04-25 17:56 42.28218 4.19717 23075 ft 417 kts 209°
2026-04-25 17:56 42.25694 4.17846 23073 ft 403 kts 209°
2026-04-25 17:57 42.23267 4.16047 23080 ft 401 kts 209°
2026-04-25 17:57 42.20794 4.14218 23084 ft 407 kts 209°
2026-04-25 17:57 42.18299 4.12376 23083 ft 408 kts 209°
2026-04-25 17:57 42.17488 4.11778 23083 ft 408 kts 209°
2026-04-25 17:58 42.13319 4.08710 23083 ft 407 kts 209°
2026-04-25 17:58 42.10836 4.06885 23083 ft 408 kts 209°
2026-04-25 17:58 42.08367 4.05071 23083 ft 407 kts 209°
2026-04-25 17:58 42.05870 4.03238 23084 ft 407 kts 209°
2026-04-25 17:59 42.03369 4.01403 23086 ft 407 kts 209°
2026-04-25 17:59 42.00891 3.99588 23087 ft 408 kts 209°
2026-04-25 17:59 41.98385 3.97753 23086 ft 408 kts 209°
2026-04-25 17:59 41.95912 3.95945 23087 ft 408 kts 209°
2026-04-25 18:00 41.94225 3.94713 23086 ft 408 kts 208°
2026-04-25 18:00 41.90711 3.92911 23093 ft 408 kts 193°
2026-04-25 18:00 41.87917 3.92170 23089 ft 409 kts 189°
2026-04-25 18:00 41.85099 3.91564 23085 ft 408 kts 188°
2026-04-25 18:01 41.82309 3.90974 23089 ft 408 kts 189°
2026-04-25 18:01 41.79500 3.90359 23091 ft 408 kts 189°
2026-04-25 18:01 41.76698 3.89729 23092 ft 409 kts 189°
2026-04-25 18:01 41.73870 3.89082 23091 ft 408 kts 189°
2026-04-25 18:02 41.71072 3.88439 23091 ft 408 kts 189°
2026-04-25 18:02 41.68289 3.87798 23093 ft 408 kts 189°
2026-04-25 18:02 41.65463 3.87148 23094 ft 408 kts 189°
2026-04-25 18:02 41.62669 3.86506 23096 ft 408 kts 189°
2026-04-25 18:03 41.59898 3.85870 23097 ft 408 kts 189°
2026-04-25 18:03 41.57084 3.85223 23096 ft 408 kts 189°
2026-04-25 18:03 41.54290 3.84581 23095 ft 407 kts 189°
2026-04-25 18:03 41.51496 3.83939 23094 ft 407 kts 189°
2026-04-25 18:04 41.48705 3.83299 23096 ft 407 kts 189°
2026-04-25 18:04 41.45896 3.82655 23098 ft 408 kts 189°
2026-04-25 18:04 41.43096 3.82013 23098 ft 408 kts 189°
2026-04-25 18:04 41.40292 3.81372 23100 ft 408 kts 189°
2026-04-25 18:05 41.37518 3.80738 23100 ft 408 kts 189°
2026-04-25 18:05 41.34689 3.80092 23101 ft 408 kts 189°
2026-04-25 18:05 41.31904 3.79457 23101 ft 407 kts 189°
2026-04-25 18:05 41.29105 3.78818 23102 ft 407 kts 189°
2026-04-25 18:06 41.26338 3.78188 23103 ft 408 kts 189°
2026-04-25 18:06 41.23541 3.77552 23104 ft 407 kts 189°
2026-04-25 18:06 41.20711 3.76908 23104 ft 407 kts 189°
2026-04-25 18:06 41.17922 3.76275 23104 ft 408 kts 189°
2026-04-25 18:07 41.15133 3.75549 23099 ft 407 kts 196°
2026-04-25 18:07 41.12436 3.74342 23076 ft 410 kts 201°
2026-04-25 18:07 41.09772 3.72949 22882 ft 411 kts 202°
2026-04-25 18:07 41.07139 3.71536 22689 ft 409 kts 202°
2026-04-25 18:08 41.04509 3.70140 22497 ft 405 kts 201°
2026-04-25 18:08 41.01899 3.68775 22305 ft 404 kts 201°
2026-04-25 18:08 40.99283 3.67421 22102 ft 403 kts 201°
2026-04-25 18:08 40.96641 3.66061 21766 ft 405 kts 201°
2026-04-25 18:09 40.94019 3.64714 21435 ft 402 kts 201°
2026-04-25 18:09 40.91425 3.63382 21105 ft 398 kts 201°
2026-04-25 18:09 40.88871 3.62073 20778 ft 395 kts 201°
2026-04-25 18:09 40.88007 3.61630 20666 ft 393 kts 201°
2026-04-25 18:10 40.83776 3.59462 20119 ft 390 kts 201°
2026-04-25 18:10 40.81252 3.58170 19791 ft 388 kts 201°
2026-04-25 18:10 40.78722 3.56877 19462 ft 386 kts 201°
2026-04-25 18:10 40.76256 3.55617 19140 ft 384 kts 201°
2026-04-25 18:11 40.73747 3.54336 18812 ft 382 kts 200°
2026-04-25 18:11 40.71279 3.53077 18420 ft 383 kts 200°
2026-04-25 18:11 40.68810 3.51819 18023 ft 381 kts 200°
2026-04-25 18:11 40.66331 3.50557 17627 ft 378 kts 200°
2026-04-25 18:12 40.63893 3.49316 17191 ft 376 kts 200°
2026-04-25 18:12 40.61459 3.48079 16754 ft 374 kts 200°
2026-04-25 18:12 40.59019 3.46840 16312 ft 372 kts 200°
2026-04-25 18:12 40.56611 3.45618 15872 ft 370 kts 200°
2026-04-25 18:13 40.54243 3.44417 15436 ft 368 kts 200°
2026-04-25 18:13 40.51841 3.43200 14991 ft 366 kts 200°
2026-04-25 18:13 40.49501 3.41939 14552 ft 364 kts 203°
2026-04-25 18:14 40.44876 3.39285 13674 ft 362 kts 202°
2026-04-25 18:14 40.42558 3.37991 13232 ft 361 kts 202°
2026-04-25 18:14 40.40252 3.36719 12790 ft 360 kts 202°
2026-04-25 18:14 40.37931 3.35444 12344 ft 358 kts 202°
2026-04-25 18:15 40.35636 3.34192 11900 ft 357 kts 200°
2026-04-25 18:15 40.33377 3.32981 11652 ft 348 kts 201°
2026-04-25 18:15 40.31134 3.31770 11415 ft 340 kts 201°
2026-04-25 18:15 40.28974 3.30593 11179 ft 333 kts 201°
2026-04-25 18:16 40.26866 3.29441 10899 ft 327 kts 201°
2026-04-25 18:16 40.24781 3.28301 10557 ft 324 kts 201°
2026-04-25 18:16 40.20663 3.26050 9866 ft 318 kts 201°
2026-04-25 18:17 40.18616 3.24932 9518 ft 315 kts 201°
2026-04-25 18:17 40.16593 3.23828 9172 ft 312 kts 201°
2026-04-25 18:17 40.14605 3.22744 8827 ft 310 kts 201°
2026-04-25 18:17 40.12627 3.21666 8480 ft 307 kts 201°
2026-04-25 18:18 40.10668 3.20599 8133 ft 304 kts 201°
2026-04-25 18:18 40.08707 3.19532 7782 ft 302 kts 201°
2026-04-25 18:18 40.06776 3.18482 7434 ft 299 kts 201°
2026-04-25 18:18 40.04872 3.17447 7090 ft 297 kts 201°
2026-04-25 18:19 40.03007 3.16435 7028 ft 284 kts 201°
2026-04-25 18:19 40.01163 3.15434 7065 ft 288 kts 201°
2026-04-25 18:19 39.99291 3.14419 7070 ft 289 kts 201°
2026-04-25 18:19 39.97450 3.13421 7064 ft 280 kts 201°
2026-04-25 18:20 39.95703 3.12473 7035 ft 266 kts 201°
2026-04-25 18:20 39.94025 3.11563 6893 ft 256 kts 201°
2026-04-25 18:20 39.92433 3.10701 6753 ft 241 kts 201°
2026-04-25 18:20 39.90919 3.09881 6538 ft 235 kts 201°
2026-04-25 18:21 39.89396 3.09058 6240 ft 235 kts 201°
2026-04-25 18:21 39.87885 3.08240 5936 ft 231 kts 201°
2026-04-25 18:21 39.86412 3.07444 5629 ft 228 kts 201°
2026-04-25 18:21 39.84959 3.06660 5265 ft 228 kts 201°
2026-04-25 18:22 39.83492 3.05868 4902 ft 227 kts 201°
2026-04-25 18:22 39.82996 3.05601 4778 ft 227 kts 201°
2026-04-25 18:22 39.80575 3.04295 4171 ft 225 kts 201°
2026-04-25 18:22 39.79129 3.03516 3810 ft 223 kts 201°
2026-04-25 18:23 39.77720 3.02756 3521 ft 218 kts 201°
2026-04-25 18:23 39.76323 3.02004 3237 ft 213 kts 201°
2026-04-25 18:23 39.74977 3.01280 2980 ft 207 kts 201°
2026-04-25 18:23 39.73703 3.00593 2934 ft 191 kts 201°
2026-04-25 18:24 39.72461 2.99925 2960 ft 194 kts 201°
2026-04-25 18:24 39.71204 2.99250 2964 ft 193 kts 201°
2026-04-25 18:24 39.69963 2.98583 2966 ft 193 kts 201°
2026-04-25 18:24 39.68716 2.97913 2946 ft 195 kts 201°
2026-04-25 18:25 39.67442 2.97230 2755 ft 197 kts 201°
2026-04-25 18:25 39.66186 2.96555 2530 ft 194 kts 201°
2026-04-25 18:25 39.64991 2.95839 2424 ft 180 kts 217°
2026-04-25 18:25 39.64283 2.94575 2469 ft 174 kts 241°
2026-04-25 18:26 39.63635 2.93258 2465 ft 173 kts 236°
2026-04-25 18:26 39.62977 2.91942 2464 ft 173 kts 237°
2026-04-25 18:26 39.62345 2.90624 2452 ft 174 kts 238°
2026-04-25 18:26 39.61709 2.89270 2269 ft 175 kts 238°
2026-04-25 18:27 39.61079 2.87929 2060 ft 172 kts 237°
2026-04-25 18:27 39.60464 2.86619 1845 ft 170 kts 237°
2026-04-25 18:27 39.59844 2.85302 1626 ft 169 kts 237°
2026-04-25 18:27 39.59239 2.84016 1408 ft 167 kts 237°
2026-04-25 18:28 39.58644 2.82753 1253 ft 156 kts 237°
2026-04-25 18:28 39.58091 2.81577 995 ft 150 kts 237°
2026-04-25 18:28 39.57563 2.80458 780 ft 143 kts 237°
2026-04-25 18:29 39.56526 2.78298 421 ft 138 kts 238°
2026-04-25 18:29 39.56044 2.77238 251 ft 135 kts 238°
2026-04-25 18:30 39.54790 2.74583 27 ft 69 kts 238°
2026-04-25 18:30 39.54607 2.74191 34 ft 34 kts 244°
2026-04-25 18:30 39.54550 2.73918 36 ft 30 kts 268°
2026-04-25 18:30 39.54548 2.73776 37 ft 0 kts 270°
2026-04-25 18:31 39.54548 2.73770 37 ft 2 kts 270°
2026-04-25 18:32 39.54552 2.73720 37 ft 8 kts 283°
2026-04-25 18:32 39.54584 2.73691 37 ft 5 kts 47°
2026-04-25 18:32 39.54589 2.73713 37 ft 3 kts 71°
2026-04-25 18:32 39.54623 2.73780 37 ft 14 kts 53°
2026-04-25 18:33 39.54683 2.73900 37 ft 16 kts 59°
2026-04-25 18:33 39.54745 2.74032 37 ft 17 kts 59°
2026-04-25 18:33 39.54812 2.74131 35 ft 12 kts
2026-04-25 18:33 39.54885 2.74079 37 ft 11 kts 327°
2026-04-25 18:34 39.54954 2.74023 40 ft 11 kts 328°
2026-04-25 18:34 39.55025 2.73967 41 ft 13 kts 328°
2026-04-25 18:34 39.55120 2.73892 41 ft 17 kts 329°
2026-04-25 18:34 39.55241 2.73796 39 ft 23 kts 329°
2026-04-25 18:35 39.55398 2.73674 32 ft 26 kts 329°
2026-04-25 18:35 39.55528 2.73571 26 ft 17 kts 329°
2026-04-25 18:35 39.55606 2.73510 23 ft 7 kts 329°
2026-04-25 18:35 39.55630 2.73451 22 ft 9 kts 249°
2026-04-25 18:36 39.55589 2.73367 21 ft 12 kts 238°
2026-04-25 18:36 39.55535 2.73256 20 ft 16 kts 238°
2026-04-25 18:36 39.55468 2.73112 18 ft 20 kts 239°
2026-04-25 18:36 39.55391 2.72948 15 ft 21 kts 238°
2026-04-25 18:37 39.55316 2.72792 14 ft 20 kts 239°
2026-04-25 18:37 39.55235 2.72620 11 ft 22 kts 238°
2026-04-25 18:37 39.55150 2.72444 10 ft 22 kts 238°
2026-04-25 18:37 39.55076 2.72286 15 ft 19 kts 239°
2026-04-25 18:38 39.55005 2.72133 16 ft 21 kts 239°
2026-04-25 18:38 39.54931 2.71977 18 ft 19 kts 238°
2026-04-25 18:38 39.54864 2.71834 18 ft 16 kts 239°
2026-04-25 18:38 39.54819 2.71754 18 ft 9 kts 205°
2026-04-25 18:39 39.54766 2.71767 17 ft 5 kts 193°
2026-04-25 18:39 39.54729 2.71719 16 ft 8 kts 232°
2026-04-25 18:39 39.54694 2.71654 15 ft 8 kts 234°
2026-04-25 18:39 39.54665 2.71642 15 ft 3 kts 144°
2026-04-25 18:40 39.54642 2.71665 15 ft 2 kts 151°
2026-04-25 18:40 39.54633 2.71672 15 ft 2 kts 149°
2026-04-25 18:40 39.54631 2.71673 15 ft 0 kts 150°